DB0LC-2 Weather Reports


time (UTC)temp
F
wind
direction
speed
knots
gust
knots
rain 1hr
in
rain 24hr
in
rain mn
in
humidity
%
barometer
mb
20260506141734 67 0 0.0 0.0 0.00 0.00 0.00 33 904.5
20260506141732 67 0 0.0 0.0 0.00 0.00 0.00 33 904.4
20260506140706 67 0 0.0 0.0 0.00 0.00 0.00 32 904.4
20260506135632 68 0 0.0 0.0 0.00 0.00 0.00 32 903.8
20260506134605 68 0 0.0 0.0 0.00 0.00 0.00 32 903.4
20260506133527 67 0 0.0 0.0 0.00 0.00 0.00 33 903.3
20260506132515 67 0 0.0 0.0 0.00 0.00 0.00 33 903.3
20260506131516 67 0 0.0 0.0 0.00 0.00 0.00 31 903.4
20260506130458 68 0 0.0 0.0 0.00 0.00 0.00 32 903.3
20260506124430 67 0 0.0 0.0 0.00 0.00 0.00 33 903.2
20260506123426 67 0 0.0 0.0 0.00 0.00 0.00 31 903.4
20260506121402 68 0 0.0 0.0 0.00 0.00 0.00 32 903.4
20260506120410 67 0 0.0 0.0 0.00 0.00 0.00 32 903.4
20260506115350 67 0 0.0 0.0 0.00 0.00 0.00 32 903.4
20260506114353 68 0 0.0 0.0 0.00 0.00 0.00 31 903.0
20260506113338 68 0 0.0 0.0 0.00 0.00 0.00 32 902.9
20260506112339 67 0 0.0 0.0 0.00 0.00 0.00 32 902.8
20260506111317 67 0 0.0 0.0 0.00 0.00 0.00 33 903.0
20260506105252 68 0 0.0 0.0 0.00 0.00 0.00 32 903.1
20260506104230 68 0 0.0 0.0 0.00 0.00 0.00 32 903.3
20260506103200 67 0 0.0 0.0 0.00 0.00 0.00 32 903.3
20260506102148 67 0 0.0 0.0 0.00 0.00 0.00 32 903.5
20260506101139 66 0 0.0 0.0 0.00 0.00 0.00 32 903.5
20260506100136 68 0 0.0 0.0 0.00 0.00 0.00 32 903.3
20260506095137 67 0 0.0 0.0 0.00 0.00 0.00 32 903.3
20260506094137 67 0 0.0 0.0 0.00 0.00 0.00 32 903.4
20260506091100 67 0 0.0 0.0 0.00 0.00 0.00 32 903.3
20260506091059 67 0 0.0 0.0 0.00 0.00 0.00 32 903.4
20260506090035 67 0 0.0 0.0 0.00 0.00 0.00 32 903.5
20260506085010 67 0 0.0 0.0 0.00 0.00 0.00 31 903.5
20260506083959 68 0 0.0 0.0 0.00 0.00 0.00 32 903.6
20260506081858 67 0 0.0 0.0 0.00 0.00 0.00 32 903.8
20260506080825 67 0 0.0 0.0 0.00 0.00 0.00 32 903.7
20260506072730 67 0 0.0 0.0 0.00 0.00 0.00 32 903.6
20260506070654 67 0 0.0 0.0 0.00 0.00 0.00 30 903.6
20260506060456 68 0 0.0 0.0 0.00 0.00 0.00 32 903.8
20260506051303 68 0 0.0 0.0 0.00 0.00 0.00 32 903.9
20260506050244 67 0 0.0 0.0 0.00 0.00 0.00 32 903.9
20260506044128 66 0 0.0 0.0 0.00 0.00 0.00 32 904.0
20260506043113 68 0 0.0 0.0 0.00 0.00 0.00 31 904.0
20260506042022 68 0 0.0 0.0 0.00 0.00 0.00 32 904.2
20260506040947 67 0 0.0 0.0 0.00 0.00 0.00 32 904.3
20260506035921 66 0 0.0 0.0 0.00 0.00 0.00 32 904.3
20260506034845 67 0 0.0 0.0 0.00 0.00 0.00 30 904.4
20260506033820 68 0 0.0 0.0 0.00 0.00 0.00 32 904.6
20260506032811 67 0 0.0 0.0 0.00 0.00 0.00 32 904.7
20260506031756 67 0 0.0 0.0 0.00 0.00 0.00 32 904.7
20260506030722 67 0 0.0 0.0 0.00 0.00 0.00 32 904.9
20260506025650 68 0 0.0 0.0 0.00 0.00 0.00 32 905.0
20260506024618 68 0 0.0 0.0 0.00 0.00 0.00 32 905.2
20260506022558 67 0 0.0 0.0 0.00 0.00 0.00 32 905.2
20260506022555 67 0 0.0 0.0 0.00 0.00 0.00 32 905.2
20260506021505 67 0 0.0 0.0 0.00 0.00 0.00 30 905.4
20260506020429 68 0 0.0 0.0 0.00 0.00 0.00 32 905.4
20260506015353 68 0 0.0 0.0 0.00 0.00 0.00 32 905.5
20260506013251 66 0 0.0 0.0 0.00 0.00 0.00 32 905.8
20260506012231 67 0 0.0 0.0 0.00 0.00 0.00 29 905.6
20260506012229 67 0 0.0 0.0 0.00 0.00 0.00 29 905.7
20260506011215 68 0 0.0 0.0 0.00 0.00 0.00 32 905.6
20260506010113 67 0 0.0 0.0 0.00 0.00 0.00 32 905.7
20260506005049 67 0 0.0 0.0 0.00 0.00 0.00 33 905.6
20260506004013 67 0 0.0 0.0 0.00 0.00 0.00 32 905.9
20260506003001 68 0 0.0 0.0 0.00 0.00 0.00 32 906.1
20260506001950 68 0 0.0 0.0 0.00 0.00 0.00 32 906.2
20260506000847 67 0 0.0 0.0 0.00 0.00 0.00 33 906.0
20260505235835 66 0 0.0 0.0 0.00 0.00 0.00 33 906.0
20260505234746 68 0 0.0 0.0 0.00 0.00 0.00 31 906.1
20260505233733 68 0 0.0 0.0 0.00 0.00 0.00 32 906.3
20260505232709 67 0 0.0 0.0 0.00 0.00 0.00 32 906.5
20260505231711 67 0 0.0 0.0 0.00 0.00 0.00 33 906.3
20260505231709 67 0 0.0 0.0 0.00 0.00 0.00 33 906.4
20260505230632 66 0 0.0 0.0 0.00 0.00 0.00 32 906.4
20260505225613 68 0 0.0 0.0 0.00 0.00 0.00 32 906.5
20260505224519 68 0 0.0 0.0 0.00 0.00 0.00 32 906.5
20260505223510 67 0 0.0 0.0 0.00 0.00 0.00 32 906.4
20260505222442 67 0 0.0 0.0 0.00 0.00 0.00 33 906.5
20260505221430 67 0 0.0 0.0 0.00 0.00 0.00 30 906.6
20260505220410 68 0 0.0 0.0 0.00 0.00 0.00 32 906.7
20260505215325 67 0 0.0 0.0 0.00 0.00 0.00 32 906.6
20260505214301 67 0 0.0 0.0 0.00 0.00 0.00 33 906.7
20260505212227 68 0 0.0 0.0 0.00 0.00 0.00 31 906.6
20260505211202 68 0 0.0 0.0 0.00 0.00 0.00 32 906.8
20260505210135 67 0 0.0 0.0 0.00 0.00 0.00 32 906.8
20260505205128 67 0 0.0 0.0 0.00 0.00 0.00 33 906.6
20260505204102 67 0 0.0 0.0 0.00 0.00 0.00 31 906.6
20260505204100 67 0 0.0 0.0 0.00 0.00 0.00 31 906.7
20260505203021 68 0 0.0 0.0 0.00 0.00 0.00 32 906.6
20260505201955 67 0 0.0 0.0 0.00 0.00 0.00 32 906.8
20260505200944 67 0 0.0 0.0 0.00 0.00 0.00 33 906.7
20260505194856 68 0 0.0 0.0 0.00 0.00 0.00 32 907.0
20260505193814 68 0 0.0 0.0 0.00 0.00 0.00 33 906.9
20260505192727 67 0 0.0 0.0 0.00 0.00 0.00 33 906.9
20260505191718 66 0 0.0 0.0 0.00 0.00 0.00 33 906.7
20260505190638 68 0 0.0 0.0 0.00 0.00 0.00 32 906.6
20260505185626 68 0 0.0 0.0 0.00 0.00 0.00 33 906.4
20260505184601 67 0 0.0 0.0 0.00 0.00 0.00 33 906.6
20260505183535 67 0 0.0 0.0 0.00 0.00 0.00 32 906.5
20260505182514 68 0 0.0 0.0 0.00 0.00 0.00 32 906.3
20260505181344 68 0 0.0 0.0 0.00 0.00 0.00 32 906.0
20260505180320 67 0 0.0 0.0 0.00 0.00 0.00 33 905.8
20260505175255 67 0 0.0 0.0 0.00 0.00 0.00 32 905.5
20260505174230 68 0 0.0 0.0 0.00 0.00 0.00 31 905.5
20260505173140 67 0 0.0 0.0 0.00 0.00 0.00 32 905.5
20260505171104 67 0 0.0 0.0 0.00 0.00 0.00 30 905.3
20260505170032 68 0 0.0 0.0 0.00 0.00 0.00 32 905.2
20260505170030 68 0 0.0 0.0 0.00 0.00 0.00 32 905.2
20260505165003 67 0 0.0 0.0 0.00 0.00 0.00 32 905.0
20260505163911 67 0 0.0 0.0 0.00 0.00 0.00 32 905.0
20260505162826 67 0 0.0 0.0 0.00 0.00 0.00 30 905.0
20260505162824 67 0 0.0 0.0 0.00 0.00 0.00 30 905.1
20260505160706 67 0 0.0 0.0 0.00 0.00 0.00 32 904.8
20260505152443 67 0 0.0 0.0 0.00 0.00 0.00 30 904.8
20260505151442 68 0 0.0 0.0 0.00 0.00 0.00 32 904.8
20260505150416 67 0 0.0 0.0 0.00 0.00 0.00 32 904.8